{"data":{"norad_id":55772,"intl_designator":"2023-028AH","name":"STARLINK-5835","alt_names":[],"object_type":"PAYLOAD","status":"ACTIVE","operator":null,"country":"US","launch_date":"2023-03-03","launch_site_code":"AFWTR","launch_vehicle":null,"mission":null,"orbit_class":"UNKNOWN","rcs_meters":null,"size_class":null,"mass_kg":null,"dimensions":null,"purposes":["comms"],"wikipedia_slug":null,"has_3d_model":false,"image_url":null,"decayed_at":null,"tle_current":{"epoch":"2026-05-25T02:43:55.107264Z","epoch_age_seconds":62527,"freshness":"FRESH","line1":"1 55772U 23028AH  26145.11383226  .00000689  00000+0  65504-4 0  9991","line2":"2 55772  70.0000  31.6494 0002789 268.8953  91.1887 14.98330613177983","mean_motion":14.98330613,"eccentricity":0.0002789,"inclination_deg":70,"raan_deg":31.6494,"arg_perigee_deg":268.8953,"mean_anomaly_deg":91.1887,"bstar":6.5504e-5,"rev_number":17798,"period_min":96.106959806207,"perigee_km":570.11558702454,"apogee_km":573.99240356172,"semimajor_km":6950.1909952931,"source":"CELESTRAK","updated_at":"2026-05-25T13:38:17.884022Z"}}}